[[{"header":{"parameterUnit":"m.s-1","parameterCategory":1,"la1":30.2991,"la2":30.254,"lo1":-89.0895,"lo2":-89.0444,"dy":0.0017,"dx":0.0017,"nx":28,"ny":28,"refTime":"2023-09-04T09:00:00:Z","depth":0,"parameterNumber":2,"parameterNumberName":"U-component_of_WINDS"},"data":[0,0,0,0,0,0,0,0,0,0,0,0,0,0,0,0,0,0,0,0,0,0,0,0,0,0,0,0,0,0,0,0,0,0,0,0,0,0,0,0,0,0,0,0,0,0,0,0,0,0,0,0,0,0,0,0,0,0,-2.2006,-2.2006,0,-2.2039,-2.204,-2.204,-2.2016,-2.2015,-2.2014,-2.2013,-2.205,-2.2052,-2.2054,0,0,0,0,0,0,0,0,0,0,0,0,0,-2.1924,-2.1926,-2.2006,-2.2006,-2.2007,-2.2039,-2.204,-2.204,-2.2016,-2.2015,-2.2014,-2.2012,-2.205,-2.2052,-2.2054,0,0,0,0,0,0,0,0,0,0,0,0,0,-2.1959,-2.1926,-2.2006,-2.1998,-2.1998,-2.2039,-2.204,-2.204,-2.2016,-2.2015,-2.2013,-2.2012,-2.2049,-2.2052,-2.2055,-2.2106,0,0,-2.2064,-2.2065,0,0,0,0,0,0,0,0,-2.1957,-2.1962,-2.1999,-2.1999,-2.1999,-2.2022,-2.2025,-2.2062,-2.2017,-2.201,-2.2013,-2.2011,-2.2042,-2.2046,-2.2056,-2.2107,-2.2109,-2.2064,-2.2066,-2.2067,-2.2068,0,0,0,0,0,0,0,-2.1954,-2.196,-2.2019,-2.2,-2.1999,-2.1995,-2.1998,-2.2032,-2.2035,-2.201,-2.2008,-2.2013,-2.2042,-2.2053,-2.2056,-2.211,-2.2064,-2.2067,-2.2069,-2.207,-2.2206,-2.2208,0,0,0,0,0,0,-2.1952,-2.1958,-2.2018,-2.202,-2.1973,-2.1997,-2.2001,-2.2016,-2.2034,-2.2035,-2.2014,-2.2011,-2.2049,-2.2053,-2.2058,-2.2119,-2.2067,-2.207,-2.2072,-2.2204,-2.2206,-2.2208,0,0,0,0,0,0,-2.1951,-2.1958,-2.2017,-2.1989,-2.1996,-2.2,-2.2018,-2.2018,-2.2028,-2.2037,-2.2038,-2.2024,-2.2047,-2.2053,-2.2094,-2.212,-2.2071,-2.2074,-2.2202,-2.2205,-2.2207,-2.2241,0,0,0,0,0,0,-2.1948,-2.1957,-2.1976,-2.1989,-2.1997,-2.2051,-2.2019,-2.2019,-2.2033,-2.203,-2.2047,-2.2048,-2.2047,-2.209,-2.2097,-2.2123,-2.2076,-2.22,-2.2203,-2.2206,-2.2238,-2.2245,-2.2251,0,0,0,0,0,-2.1946,-2.1985,-2.1977,-2.1984,-2.2021,-2.2053,-2.2058,-2.2054,-2.2035,-2.2055,-2.206,-2.2048,-2.2116,-2.2094,-2.2102,-2.2129,-2.2198,-2.2202,-2.2206,-2.2235,-2.2243,-2.2251,0,0,0,0,0,0,-2.1975,-2.1986,-2.1978,-2.2022,-2.2037,-2.2049,-2.2073,-2.2063,-2.2084,-2.208,-2.2076,-2.208,-2.2122,-2.213,-2.2105,-2.218,-2.2154,-2.216,-2.2173,-2.2181,-2.2188,-2.2185,-2.2079,0,0,0,0,0,-2.1986,-2.2011,-2.202,-2.2058,-2.2066,-2.2068,-2.2082,-2.2078,-2.2093,-2.2099,-2.2108,-2.2124,-2.2149,-2.2166,-2.2189,-2.2239,-2.2243,-2.2262,-2.2269,-2.2274,-2.2279,-2.2306,-2.2315,-2.2222,-2.2222,-2.2222,0,0,-2.2011,-2.202,-2.2036,-2.2064,-2.2075,-2.2101,-2.2073,-2.2102,-2.2122,-2.2104,-2.2142,-2.215,-2.2168,-2.2213,-2.2234,-2.2221,-2.2306,-2.2279,-2.2283,-2.2285,-2.2312,-2.232,-2.2328,-2.2224,-2.2224,-2.2224,0,0,-2.2068,-2.2077,-2.211,-2.2122,-2.2138,-2.2139,-2.2147,-2.2161,-2.2165,-2.2203,-2.2191,-2.2215,-2.2258,-2.2271,-2.2284,-2.2347,-2.2337,-2.2356,-2.2389,-2.2416,-2.2423,-2.243,-2.2453,-2.2461,-2.2361,-2.2361,-2.2361,0,-2.2096,-2.2134,-2.2129,-2.2159,-2.2172,-2.2156,-2.2191,-2.2202,-2.2226,-2.2236,-2.2221,-2.2275,-2.2286,-2.2335,-2.235,-2.2361,-2.2371,-2.2353,-2.2422,-2.2429,-2.2435,-2.2457,-2.2465,-2.2363,-2.2363,-2.2362,-2.2362,0,-2.2168,-2.2195,-2.222,-2.2242,-2.2258,-2.229,-2.2291,-2.2308,-2.2303,-2.2307,-2.2347,-2.236,-2.2386,-2.2397,-2.2393,-2.2446,-2.2437,-2.2423,-2.2396,-2.2446,-2.2467,-2.2475,-2.2366,-2.2365,-2.2364,-2.2364,0,0,-2.2245,-2.2264,-2.2273,-2.2283,-2.23,-2.2321,-2.2353,-2.2378,-2.2393,-2.241,-2.2437,-2.2475,-2.2461,-2.2476,-2.2473,-2.2497,-2.2547,-2.2479,-2.248,-2.2491,-2.2606,-2.2617,-2.2626,-2.254,-2.2542,-2.2543,-2.2605,0,-2.2303,-2.2357,-2.2353,-2.2404,-2.2429,-2.2416,-2.2443,-2.2458,-2.2462,-2.2485,-2.2491,-2.2517,-2.2497,-2.2506,-2.2529,-2.2536,-2.257,-2.2531,-2.2566,-2.2567,-2.2561,-2.2637,-2.2648,-2.2706,-2.2613,-2.2614,-2.2615,0,-2.2378,-2.2397,-2.245,-2.2464,-2.2474,-2.2499,-2.2522,-2.2543,-2.256,-2.2562,-2.2578,-2.2571,-2.2605,-2.2578,-2.2625,-2.2599,-2.2613,-2.2619,-2.2621,-2.2624,-2.2594,-2.2642,-2.2724,-2.2733,-2.2628,-2.2627,-2.2626,0,-2.2428,-2.2467,-2.2504,-2.2513,-2.253,-2.2548,-2.2556,-2.2571,-2.2586,-2.2607,-2.2617,-2.2641,-2.2655,-2.2674,-2.2675,-2.2656,-2.2723,-2.2696,-2.2726,-2.2726,-2.274,-2.2739,-2.2825,-2.275,-2.275,-2.275,-2.2749,0,-2.2494,-2.2527,-2.2527,-2.255,-2.2587,-2.2583,-2.2621,-2.2627,-2.2641,-2.2665,-2.2656,-2.2679,-2.2679,-2.2704,-2.2705,-2.2744,-2.275,-2.2753,-2.2753,-2.2754,-2.2753,-2.2763,-2.2759,-2.2752,-2.2751,-2.2751,-2.275,0,-2.2556,-2.2557,-2.2597,-2.2609,-2.2613,-2.264,-2.2652,-2.2674,-2.2678,-2.2709,-2.2717,-2.2723,-2.2752,-2.2754,-2.2788,-2.2789,-2.2836,-2.2832,-2.283,-2.2829,-2.2858,-2.2856,-2.2954,-2.2967,-2.2883,-2.2884,-2.2884,0,-2.2597,-2.2623,-2.2638,-2.2653,-2.2662,-2.2687,-2.2702,-2.27,-2.2717,-2.2738,-2.2758,-2.2785,-2.2807,-2.2853,-2.2862,-2.2887,-2.2884,-2.2916,-2.2888,-2.2888,-2.2884,-2.2883,-2.2885,-2.2922,-2.2923,-2.2924,-2.2924,0,-2.2671,-2.267,-2.2692,-2.2714,-2.2732,-2.275,-2.2767,-2.278,-2.278,-2.28,-2.2828,-2.2845,-2.2879,-2.2906,-2.2932,-2.2942,-2.2934,-2.2933,-2.2941,-2.2942,-2.294,-2.2942,-2.2845,-2.2931,-2.293,-2.293,-2.2929,-2.2929,-2.2724,-2.2746,-2.276,-2.2785,-2.2797,-2.2813,-2.2834,-2.284,-2.2863,-2.289,-2.2888,-2.2919,-2.2936,-2.297,-2.2981,-2.3007,-2.2996,-2.3008,-2.3011,-2.3014,-2.3017,-2.2936,-2.3012,-2.3012,-2.3011,-2.3011,-2.3011,0,-2.2798,-2.2806,-2.2829,-2.2851,-2.2871,-2.286,-2.2878,-2.2896,-2.2923,-2.2939,-2.2961,-2.2994,-2.3021,-2.3031,-2.3058,-2.3076,-2.3073,-2.3084,-2.3082,-2.3085,-2.3025,-2.3015,-2.3086,-2.3086,-2.3086,-2.3085,-2.3085,-2.3085,-2.2838,-2.2874,-2.2875,-2.2918,-2.2926,-2.2956,-2.2967,-2.2982,-2.2995,-2.3032,-2.3053,-2.306,-2.3074,-2.3102,-2.3126,-2.3129,-2.3139,-2.3151,-2.3152,-2.3096,-2.3089,-2.3082,-2.3072,-2.3153,-2.3153,-2.3209,-2.321,-2.321]},{"header":{"parameterUnit":"m.s-1","parameterCategory":1,"la1":30.2991,"la2":30.254,"lo1":-89.0895,"lo2":-89.0444,"dy":0.0017,"dx":0.0017,"nx":28,"ny":28,"refTime":"2023-09-04T09:00:00:Z","depth":0,"parameterNumber":3,"parameterNumberName":"V-component_of_WINDS"},"data":[0,0,0,0,0,0,0,0,0,0,0,0,0,0,0,0,0,0,0,0,0,0,0,0,0,0,0,0,0,0,0,0,0,0,0,0,0,0,0,0,0,0,0,0,0,0,0,0,0,0,0,0,0,0,0,0,0,0,4.2763,4.2762,0,4.2673,4.2672,4.2671,4.2578,4.2576,4.2575,4.2574,4.2481,4.248,4.2478,0,0,0,0,0,0,0,0,0,0,0,0,0,4.2854,4.2853,4.2763,4.2762,4.2761,4.2673,4.2672,4.267,4.2578,4.2576,4.2575,4.2573,4.2481,4.248,4.2478,0,0,0,0,0,0,0,0,0,0,0,0,0,4.2794,4.2853,4.2764,4.2704,4.2698,4.2673,4.2672,4.267,4.2578,4.2576,4.2574,4.2573,4.2482,4.248,4.2478,4.2504,0,0,4.2472,4.2471,0,0,0,0,0,0,0,0,4.2798,4.2791,4.2714,4.2708,4.2701,4.2635,4.2669,4.2614,4.2579,4.2624,4.2574,4.2572,4.2534,4.2527,4.2514,4.25,4.2496,4.2472,4.2471,4.247,4.2469,0,0,0,0,0,0,0,4.2802,4.2795,4.2727,4.2713,4.2705,4.2682,4.2671,4.2659,4.259,4.262,4.2613,4.2603,4.253,4.2517,4.2512,4.2494,4.2472,4.247,4.2469,4.2468,4.2492,4.2493,0,0,0,0,0,0,4.2816,4.2799,4.273,4.2725,4.2746,4.2682,4.267,4.2658,4.259,4.2578,4.2605,4.2599,4.2521,4.2514,4.2508,4.253,4.247,4.2468,4.2467,4.249,4.2492,4.2494,0,0,0,0,0,0,4.2818,4.281,4.2734,4.276,4.2748,4.2682,4.267,4.2657,4.2644,4.2579,4.2566,4.2604,4.2519,4.2511,4.2505,4.2526,4.2467,4.2465,4.2488,4.2491,4.2493,4.2577,0,0,0,0,0,0,4.2821,4.2812,4.2822,4.2761,4.2747,4.2733,4.2671,4.2657,4.2641,4.2632,4.2575,4.2564,4.2517,4.2508,4.2503,4.2522,4.2464,4.2486,4.2489,4.2492,4.2572,4.2583,4.2591,0,0,0,0,0,4.2824,4.285,4.2823,4.2815,4.2758,4.2735,4.2727,4.2673,4.2643,4.2651,4.2609,4.2565,4.2525,4.2508,4.2501,4.252,4.2484,4.2488,4.2492,4.2568,4.2581,4.2591,0,0,0,0,0,0,4.2915,4.2841,4.281,4.2816,4.2782,4.2719,4.2728,4.2688,4.2662,4.2655,4.2589,4.2577,4.2578,4.2549,4.2532,4.254,4.2498,4.2501,4.2558,4.257,4.2579,4.2584,4.2462,0,0,0,0,0,4.2936,4.2924,4.2859,4.2871,4.2856,4.2795,4.2783,4.2744,4.2706,4.2691,4.2649,4.2614,4.2592,4.258,4.2557,4.2569,4.2553,4.2578,4.2588,4.2596,4.2598,4.2598,4.2607,4.2507,4.2507,4.2507,0,0,4.2979,4.2936,4.2933,4.2888,4.2857,4.2844,4.2784,4.2774,4.2763,4.269,4.268,4.2648,4.2604,4.2606,4.2605,4.2582,4.2622,4.2601,4.2608,4.2606,4.2603,4.2612,4.2621,4.251,4.251,4.2509,0,0,4.3049,4.3017,4.3021,4.2992,4.2946,4.2905,4.2906,4.2849,4.2824,4.2814,4.2757,4.2744,4.271,4.2679,4.266,4.2717,4.2674,4.2712,4.276,4.2761,4.2768,4.2775,4.2791,4.2799,4.2715,4.2715,4.2715,0,4.3107,4.3086,4.3029,4.3021,4.3002,4.2935,4.2938,4.2912,4.2861,4.2848,4.2824,4.2778,4.2744,4.2735,4.2749,4.2737,4.2734,4.2716,4.2772,4.2778,4.2783,4.2798,4.2805,4.272,4.2719,4.2719,4.2718,0,4.3158,4.3145,4.3154,4.3105,4.3087,4.3085,4.3026,4.3015,4.2978,4.2939,4.2928,4.2885,4.285,4.2846,4.281,4.2832,4.2819,4.2785,4.274,4.2798,4.2811,4.2817,4.2726,4.2724,4.2723,4.2722,0,0,4.3281,4.3201,4.3204,4.318,4.3124,4.3111,4.3106,4.3072,4.3061,4.3029,4.302,4.2992,4.2959,4.2937,4.2897,4.2898,4.294,4.2862,4.286,4.2875,4.2957,4.2981,4.2988,4.2913,4.2914,4.2915,4.2959,0,4.3339,4.3324,4.3272,4.3272,4.3256,4.3192,4.3187,4.3151,4.3115,4.3096,4.3056,4.3035,4.2995,4.2981,4.2979,4.2936,4.2955,4.2932,4.2901,4.2901,4.2911,4.2996,4.3021,4.3065,4.2964,4.2965,4.2966,0,4.3404,4.3374,4.3372,4.3314,4.3305,4.3301,4.3264,4.3248,4.3205,4.3178,4.3153,4.3108,4.3096,4.3057,4.3038,4.3023,4.3008,4.2985,4.2985,4.2977,4.2935,4.2986,4.3078,4.3084,4.2974,4.2973,4.2973,0,4.3489,4.3449,4.3441,4.3423,4.3356,4.3354,4.3326,4.3281,4.3263,4.3231,4.3218,4.3186,4.3167,4.3142,4.3088,4.3066,4.3074,4.3032,4.3049,4.305,4.3051,4.3051,4.3138,4.3047,4.3047,4.3047,4.3047,0,4.3556,4.3557,4.3478,4.3473,4.3471,4.3411,4.341,4.3376,4.3337,4.3323,4.3267,4.3255,4.3187,4.3166,4.3125,4.3113,4.3106,4.3082,4.307,4.3085,4.3087,4.3071,4.3066,4.3049,4.3048,4.3048,4.3048,0,4.365,4.3598,4.3585,4.3522,4.3506,4.3507,4.3452,4.3444,4.3405,4.3388,4.338,4.3318,4.3291,4.3236,4.3194,4.3165,4.3162,4.3144,4.3176,4.3168,4.3187,4.3184,4.3264,4.3269,4.3179,4.318,4.3181,0,4.3694,4.3693,4.363,4.3616,4.359,4.357,4.3551,4.3491,4.3474,4.3424,4.3421,4.339,4.3361,4.332,4.327,4.3237,4.3215,4.3245,4.3209,4.3223,4.321,4.321,4.3207,4.3252,4.3253,4.3254,4.3255,0,4.3778,4.3751,4.3726,4.3692,4.3671,4.3641,4.3607,4.36,4.3532,4.3515,4.3486,4.3464,4.342,4.3388,4.3347,4.3316,4.3273,4.3267,4.3268,4.3282,4.3299,4.3286,4.3194,4.3265,4.3264,4.3263,4.3262,4.3262,4.3845,4.3839,4.3793,4.3767,4.3735,4.3705,4.3694,4.3652,4.3628,4.3587,4.3554,4.3527,4.3482,4.3422,4.3394,4.3371,4.3351,4.3354,4.3354,4.3355,4.3359,4.3305,4.3364,4.3364,4.3363,4.3363,4.3363,0,4.3922,4.3889,4.3865,4.382,4.3798,4.3762,4.3722,4.3706,4.3683,4.3645,4.3618,4.3583,4.3551,4.3499,4.3462,4.3454,4.3433,4.3446,4.3444,4.3437,4.3382,4.3382,4.3463,4.3463,4.3463,4.3463,4.3463,4.3463,4.3959,4.3947,4.3915,4.3886,4.3853,4.3826,4.3806,4.3777,4.3746,4.371,4.3684,4.365,4.3604,4.3564,4.3532,4.3517,4.3505,4.3523,4.3502,4.3451,4.3441,4.3432,4.3432,4.3522,4.3522,4.3558,4.3559,4.3559]}]]